COSMOS 1574

Satellite information

Favourite Embed

Satellite Type and Status

PAYLOADIN ORBIT

Key statistics

Satellite COSMOS 1574 at a glance.

Uptime

14992

Days in orbit

Revolutions

≈ 13.7

Per day

Orbit

LEO

Low Earth Orbit

Inclination

83.0

Latest

Satellite identification and parameters

Extended collection of information and parameters for COSMOS 1574.

Object identification

Identified? True

Debris? False

Object name: COSMOS 1574

International designator: 1984-062A

Object number (NORAD): 15055

Object ID (CCSDS): 15055

Country: COMMONWEALTH OF INDEPENDENT STATES (CIS)

Current information (Y/N): Y

RCS size: LARGE

Orbital parameters

Period: 104.764 minutes

Inclination: 82.9585 deg

SMA: 7361.524 km

Apoapsis: 1002.535 km

Periapsis: 964.243 km

RAAN: 333.5171 deg

Eccentricy: 0.0026008

Argument of periapsis: 296.3778 deg

Mean anomaly: 134.1095 deg

Mean motion: 13.74520348 rev/day

Mean motion (dot): 0.00000053 rev/day2

B* drag term: 0.00004043 1/REarth

Two-line elements (TLE)

Creation date: July 6, 2025, 6:05 p.m.

Reference frame: TEME

Reference center: EARTH

Epoch: July 6, 2025, 12:53 p.m. UTC

TLE line 0: 0 COSMOS 1574

TLE line 1: 1 15055U 84062A 25187.53722149 .00000053 00000-0 40430-4 0 9995

TLE line 2: 2 15055 82.9585 333.5171 0026008 296.3778 134.1095 13.74520348 58076

Live tracking on map

Real-time ground track for satellite COSMOS 1574.

In-orbit conjunctions

A list of the most updated potential collisions computed for object COSMOS 1574.

Target Orbit TCA Probability of collision Miss distance Type
COSMOS 249 DEB * LEO 2025-01-31 17:35:09 0.0001677722 878.0 (m) DEBRIS
CZ-6A DEB SSO 2024-06-06 22:01:41 0.0001455021 129.0 (m) DEBRIS

Associated space launch

Civilian navigation satellite equivalent to the purely military Parus

COSMOS 1574 was lifted into orbit during the mission ‘Kosmos-3M | Nadezhda 3’, on board a Kosmos-3M space rocket.

The launch took place on June 21, 1984, 7:40 p.m. from 132/2.

For more information about the launch, click the button.

Launch to space Kosmos-3M | Nadezhda 3
Kosmos-3M | Nadezhda 3

Agency: N/A

Status: Launch Successful

Launch date: June 21, 1984, 7:40 p.m. UTC

Rocket: Kosmos-3M

Launch pad: 132/2

Location: Plesetsk Cosmodrome, Russian Federation

...

Latest news about this satellite

There are no fresh news available about this satellite. Check back as we update our databases every day.


Newsletter sign-up

Weekly statistics, charts and insights to help you stay on top of the space industry.